Date,TemperatureHighF,TemperatureAvgF,TemperatureLowF,DewpointHighF,DewpointAvgF,DewpointLowF,HumidityHigh,HumidityAvg,HumidityLow,PressureMaxIn,PressureMinIn,WindSpeedMaxMPH,WindSpeedAvgMPH,GustSpeedMaxMPH,PrecipitationSumIn
2013-1-1,42.6,38.3,34.5,-99.9,-99.9,-99.9,0,0,100,0.00,40.00,13,10,0,0.00
2013-1-2,51.6,48.1,40.6,-99.9,-99.9,-99.9,0,0,100,0.00,40.00,17,11,0,0.00
2013-1-3,52.0,50.7,49.3,-99.9,-99.9,-99.9,0,0,100,0.00,40.00,14,9,0,0.00
2013-1-4,49.5,48.3,44.4,-99.9,-99.9,-99.9,0,0,100,0.00,40.00,17,10,0,0.00
2013-1-5,51.1,48.8,45.9,-99.9,-99.9,-99.9,0,0,100,0.00,40.00,17,10,0,0.00
2013-1-6,49.5,47.5,43.9,-99.9,-99.9,-99.9,0,0,100,0.00,40.00,15,10,0,0.00
2013-1-7,50.7,49.2,46.6,-99.9,-99.9,-99.9,0,0,100,0.00,40.00,19,11,0,0.00
2013-1-8,51.6,46.4,37.8,-99.9,-99.9,-99.9,0,0,100,0.00,40.00,17,7,0,0.00
2013-1-9,42.4,35.8,31.6,-99.9,-99.9,-99.9,0,0,100,0.00,40.00,7,4,0,0.00
2013-1-10,42.3,36.9,31.8,-99.9,-99.9,-99.9,0,0,100,0.00,40.00,8,4,0,0.00
2013-1-11,43.2,37.8,32.4,-99.9,-99.9,-99.9,0,0,100,0.00,40.00,8,4,0,0.00
2013-1-12,42.6,39.8,34.7,-99.9,-99.9,-99.9,0,0,100,0.00,40.00,10,6,0,0.00
2013-1-13,36.7,33.9,30.0,-99.9,-99.9,-99.9,0,0,100,0.00,40.00,10,5,0,0.00
2013-1-14,41.0,37.4,33.6,-99.9,-99.9,-99.9,0,0,100,0.00,40.00,20,9,0,0.00
2013-1-15,36.9,33.3,30.0,-99.9,-99.9,-99.9,0,0,100,0.00,40.00,9,5,0,0.00
2013-1-16,39.6,37.7,35.8,-99.9,-99.9,-99.9,0,0,100,0.00,40.00,6,3,0,0.00
2013-1-17,44.6,41.8,39.6,-99.9,-99.9,-99.9,0,0,100,0.00,40.00,11,4,0,0.00
2013-1-18,40.6,35.7,33.1,-99.9,-99.9,-99.9,0,0,100,0.00,40.00,13,8,0,0.00
2013-1-19,37.8,34.8,33.1,-99.9,-99.9,-99.9,0,0,100,0.00,40.00,7,4,0,0.00
2013-1-20,35.4,34.5,32.9,-99.9,-99.9,-99.9,0,0,100,0.00,40.00,10,5,0,0.00
2013-1-21,35.2,33.2,30.7,-99.9,-99.9,-99.9,0,0,100,0.00,40.00,10,4,0,0.00
2013-1-22,34.0,30.7,25.5,-99.9,-99.9,-99.9,0,0,100,0.00,40.00,7,3,0,0.00
2013-1-23,37.2,34.5,32.0,-99.9,-99.9,-99.9,0,0,100,0.00,40.00,9,4,0,0.00
2013-1-24,39.6,36.7,34.0,-99.9,-99.9,-99.9,0,0,100,0.00,40.00,112,6,0,0.00
2013-1-25,45.7,42.3,39.0,-99.9,-99.9,-99.9,0,0,100,0.00,40.00,69,6,0,0.00
2013-1-26,51.4,42.1,34.2,-99.9,-99.9,-99.9,0,0,100,0.00,40.00,3,2,0,0.00
2013-1-27,51.1,38.8,34.0,-99.9,-99.9,-99.9,0,0,100,0.00,40.00,114,17,0,0.00
2013-1-28,50.2,41.7,34.0,-99.9,-99.9,-99.9,0,0,100,0.00,40.00,89,8,0,0.00
2013-1-29,54.7,46.0,41.2,-99.9,-99.9,-99.9,0,0,100,0.00,40.00,118,15,0,0.00
2013-1-30,44.6,42.0,38.8,-99.9,-99.9,-99.9,0,0,100,0.00,40.00,25,14,0,0.00
2013-1-31,46.8,42.3,39.2,-99.9,-99.9,-99.9,0,0,100,0.00,40.00,131,26,0,0.00